Regional Weather Roundup
Issued by NWS

Home | Current Version | Previous Version | Graphics & Text | Print | Product List | Glossary Off
Versions: 1 2 3 4 5 6 7 8 9 10 11 12 13 14 15 16 17 18 19 20 21 22 23 24 25 26 27 28 29 30 31 32 33 34 35 36 37 38 39 40 41 42 43 44 45 46 47 48 49 50

000
ASUS43 KDMX 190906
RWRIA

WEATHER ROUNDUP FOR IOWA
NATIONAL WEATHER SERVICE DES MOINES IA
300 AM CST THU JAN 19 2017

NOTE: "FAIR" INDICATES FEW OR NO CLOUDS BELOW 12,000 FEET WITH NO
SIGNIFICANT WEATHER AND/OR OBSTRUCTIONS TO VISIBILITY.

* - THESE STATIONS ARE NOT NWS STATIONS...THUS NOT UNDER NWS
QUALITY CONTROL.  THEY ALSO DO NOT REPORT WEATHER SUCH
AS PRECIPITATION OR FOG.

IAZ001>003-012>014-020>022-031>034-043>046-191000-
   NORTHWEST IOWA

CITY           SKY/WX    TMP DP  RH WIND       PRES   REMARKS
CARROLL *      CLEAR     34  34 100 E6        29.87R WCI  29
CHEROKEE *     CLEAR     35  34  96 S10       29.83S WCI  27
DENISON *      CLEAR     36  34  93 CALM      29.83F FOG
LE MARS *      CLEAR     37  34  87 S13       29.80S WCI  29
ORANGE CITY *  CLEAR     36  34  93 S7        29.78F WCI  30
SHELDON *      CLEAR     36  36 100 S16       29.77S WCI  26
SIOUX CITY     CLEAR     34  32  92 SE9       29.81S WCI  27
SPENCER        CLEAR     35  32  88 S10       29.81S WCI  27
STORM LAKE *   CLEAR     34  34 100 S14       29.83F WCI  24
$$

IAZ055>058-069>071-079>083-090>094-191000-
   SOUTHWEST IOWA

CITY           SKY/WX    TMP DP  RH WIND       PRES   REMARKS
ATLANTIC *     CLEAR     36  34  93 S7        29.88S WCI  30
AUDUBON *      CLEAR     36  32  87 S7        29.87S FOG     WCI  30
CLARINDA *     CLOUDY    34  34 100 CALM      29.90F FOG
COUNCIL BLFS * CLEAR     34  34 100 SE10      29.85F WCI  26
CRESTON *      PTCLDY    34  34 100 S6        29.90F WCI  29
HARLAN  *      CLEAR     36  36 100 S10       29.89S WCI  28
LAMONI         CLOUDY    34  34 100 CALM      29.90F FOG
RED OAK *      MOCLDY    36  34  93 S6        29.88F WCI  31
SHENANDOAH *   MOCLDY    34  34 100 SE3       29.88F FOG
$$

IAZ047>049-059>061-072>074-084-191000-
   CENTRAL IOWA

CITY           SKY/WX    TMP DP  RH WIND       PRES   REMARKS
AMES           FOG       34  34 100 S7        29.92S VSB 1/2 WCI  28
ANKENY *       FOG       36  36 100 S6        29.93F VSB 1/4 WCI  31
BOONE *        FOG       34  34 100 S8        29.89F VSB<1/4 WCI  27
CHARITON *     MOCLDY    32  32 100 SE7       29.91F WCI  26
DES MOINES     FOG       35  35 100 SE7       29.92F VSB 1/4 WCI  29
GRINNELL*      FOG       32  32  99 S5        29.94F VSB 1/4 WCI  27
KNOXVILLE *    FOG       32  32 100 SE6       29.92S VSB<1/4 WCI  26
MARSHALLTOWN   FOG       33  33 100 S7        29.93S VSB 1/4 WCI  27
NEWTON *       FOG       32  32 100 S7        29.93F VSB<1/4 WCI  26
PELLA *        FOG       32  32  99 SE3       29.96S VSB 1/4
PERRY *        FOG       34  34 100 SE10      29.90R VSB 1/4 WCI  26
$$

IAZ004>006-015-016-023>025-035-036-191000-
   NORTH CENTRAL IOWA

CITY           SKY/WX    TMP DP  RH WIND       PRES   REMARKS
ALGONA *       PTCLDY    34  34 100 S16       29.85F FOG     WCI  23
CLARION *      FOG       32  32 100 S15       29.89F VSB 1/4 WCI  22
ESTHERVILLE    CLEAR     33  33 100 S13       29.81S WCI  24
FORT DODGE *   CLOUDY    34  30  86 S7        29.89F VSB 3/4 WCI  28
MASON CITY     CLOUDY    32  31  96 S15       29.89S FOG     WCI  22
FOREST CITY *    N/A     32  32 100 S7        29.87F FOG     WCI  26
WEBSTER CITY * FOG       34  34 100 S8        29.88S VSB 1/4 WCI  27
IOWA FALLS *   FOG       33  33  96 S8        29.93S VSB 1/2 WCI  27
$$

IAZ007>011-017>019-026>030-037>042-050>054-066-191000-
   NORTHEAST IOWA

CITY           SKY/WX    TMP DP  RH WIND       PRES   REMARKS
CEDAR RAPIDS   FOG       32  32 100 S6        29.96S VSB 1/4 WCI  26
CHARLES CITY * FOG       32  32 100 S18       29.92S VSB<1/4 WCI  20
CLINTON *      CLOUDY    31  30  96 SE6       30.01S FOG     WCI  25
DECORAH *      CLEAR     34  32  93 S10       29.92R WCI  26
DUBUQUE        FOG       32  32 100 SW8       29.97S VSB 1/4 WCI  25
MONTICELLO *   FOG       34  32  93 CALM      29.97F VSB 1/4
OELWEIN *      FOG       32  32 100 S13       29.96S VSB 1/4 WCI  22
WATERLOO       FOG       32  31  96 S7        29.95S VSB 3/4 WCI  26
$$

IAZ064-065-067-068-078-191000-
   EAST CENTRAL IOWA

CITY           SKY/WX    TMP DP  RH WIND       PRES   REMARKS
DAVENPORT      PTCLDY    31  29  92 SE7       30.00F FOG     WCI  24
IOWA CITY      FOG       32  32 100 E3        30.00S VSB 1/4
MUSCATINE *    FOG       27  27 100 N5        29.99F VSB<1/4 WCI  21
QUAD CITIES    PTCLDY    30  28  92 NE3       29.99F FOG
$$

IAZ062-063-075>077-085>089-095>099-191000-
   SOUTHEAST IOWA

CITY           SKY/WX    TMP DP  RH WIND       PRES   REMARKS
BURLINGTON     PTCLDY    32  31  96 S3        29.98F
FAIRFIELD *    CLEAR     30  30 100 SE5       29.95F FOG     WCI  25
FORT MADISON * CLEAR     36  34  93 SE5       29.98F WCI  32
KEOKUK *       PTCLDY    32  32 100 SE6       29.97F WCI  26
OSKALOOSA *    SNOW      31  31  99 SE7       29.95F VSB 1/4 WCI  24
OTTUMWA        FOG       31  30  96 E5        29.93F VSB 1/4 WCI  26
WASHINGTON *   CLEAR     30  30 100 SE6       29.98F FOG     WCI  24
$$

ABBREVIATIONS USED IN REMARKS
   TC - TEMPERATURES IN CELSIUS
  WCI - WIND CHILL INDEX
   HX - HEAT INDEX
  VSB - VISIBILITY
$$





USA.gov is the U.S. government's official web portal to all federal, state and local government web resources and services.